Simultaneous Nadir Overpasses (SNOs) Predictions

Prediction of SNOs between FY3D and NOAA-19 Satellite Orbit:

Table of predicted SNOs for the next 14.0 days since TLE Epoch: 7/4/2020
Index Date (FY3D) Time (FY3D) Lat,Lon (FY3D) SZA (FY3D ) Date (NOAA-19) Time (NOAA-19) Lat,Lon (NOAA-19) SZA (NOAA-19 ) Distance(km) Time Diff (sec)
1 07/11/2020 20:58:45 -79.31, 13.76 120.82 07/11/2020 20:57:33 -79.32, 13.85 120.79 1.80 72
2 07/11/2020 21:49:29 79.31,-178.86 59.18 07/11/2020 21:48:27 79.33,-178.80 59.22 2.47 62
3 07/11/2020 22:40:14 -79.31, -11.59 120.81 07/11/2020 22:39:33 -79.33, -11.50 120.79 3.22 41
4 07/11/2020 23:30:59 79.34, 155.52 59.24 07/11/2020 23:30:28 79.31, 155.58 59.23 3.01 31
5 07/12/2020 00:21:44 -79.34, -37.21 120.75 07/12/2020 00:21:34 -79.32, -37.11 120.77 3.15 10
6 07/12/2020 01:12:28 79.34, 130.17 59.25 07/12/2020 01:12:28 79.33, 130.23 59.23 1.51 0
7 07/12/2020 02:03:13 -79.34, -62.57 120.74 07/12/2020 02:03:34 -79.34, -62.46 120.77 2.24 21
8 07/12/2020 02:53:57 79.33, 104.81 59.25 07/12/2020 02:54:28 79.35, 104.89 59.24 2.09 31
9 07/12/2020 03:44:42 -79.34, -87.92 120.74 07/12/2020 03:45:34 -79.36, -87.80 120.76 3.00 52
10 07/12/2020 04:35:26 79.33, 79.45 59.26 07/12/2020 04:36:29 79.33, 79.27 59.25 3.86 63
